Volver al catálogo

FREGAT R/B

ActivoMEO
NORAD 40891·ROCKET BODY·🇷🇺 Russia

Lanzado Sep 11, 2015 desde Guiana Space Centre

Loading…

Próximos Pases (próximas 24 horas)

TLE

ActualizadoSource: Space-Track

Época: Sep 14, 2026, 03:34 UTC

1 40891U 15045C   26257.14913695  .00000011  00000-0  00000-0 0  9999
2 40891  54.7744 222.4937 0028768 234.8821 124.8021  1.67827818 67495

Sigue FREGAT R/B en tiempo real con AllMySat

Download on the App Store